Showing default

OPS 9328 (IDSCS 15), 2655

Orbit data source: Space-Track

OPS 9328 (IDSCS 15), 2655 is a payload satellite owned by USAF SSD (US) in GEO that was launched on Wed, 18 Jan 1967 UTC via a TITAN IIIC launch vehicle from the Air Force Eastern Test Range (AFETR). Payloads include a variety of satellites, spacecraft, and rockets equipped with specific instruments for various scientific and technological missions. These include communications satellites like Starlink; space stations such as the ISS; scientific satellites like the Hubble; Earth observation satellites from companies like Planet Labs, Umbra, and HawkEye 360; GPS; miniature CubeSats for education and research; and military/defense satellites.

Loading next visibility...
OPS 9328 (IDSCS 15) details
Identifier
2655, 1967-003H
Orbit
GEO
Last TLE update1 day ago
Origin
Flag of USUSAF SSD (US)
ManufacturerPhilco-Ford WDL
MissionNon-operational Defense Communications
Bus & MotorIDCSP, Unknown motor
Mass45 kg wet, 45 kg dry
Launch date (UTC)
1967-01-18 (58 years ago)
Launch vehicle
TITAN IIIC
Launch site
Air Force Eastern Test Range (AFETR)
Object type
Payload
Rocket body
Debris
Shape & HBRIco Poly, 0.9 m
Radar Cross Section0.926 m², Medium (>0.1 m² and < 1m²)

Expand to show TLE details & history

TLE from 1 day ago
0 OPS 9328 (IDSCS 15)
1 02655U 67003H   24355.08166495 -.00000111  00000-0  00000-0 0  9996
2 02655   6.9875  52.6363 0072123  24.7092 317.5165  1.07230272133367
Epoch: 2024-12-20T01:57Z
Definitive object data (Epoch: 2024-12-20T01:57:35.851Z)
Latitude-2.19104°
Longitude-84.12206°
Altitude33,728.018 km
Speed3.161 km/s
True Right ascension02h 17m 43s
True Declination-2° 11' 19"
Sunlit
Object was in daylight at TLE epoch
Visualization TLE readout
Latitude-0.42895°
Longitude117.49367°
Altitude34,213.241 km
Speed3.123 km/s
Apparent Right ascension16h 09m 09s
Apparent Declination-6° 31' 40"
Sunlit
Object is in daylight
Visualization observer readout
Local Sidereal Time11:51:43
Azimuth112.064° ESE
Elevation14.88°
Doppler factor1
Orbital elements
Apogee altitude34,234.049 km
Perigee altitude33,652.429 km
Semi-major axis40,321.376 km
Eccentricity0.0072123
Inclination6.9875°
RAAN52.6363°
Arg. of periapsis24.7092°
True anomaly316.9546°
Mean anomaly317.5165°
Eccentric anomaly317.23592°
Mean motion0.26807 °/min
BSTARUnknown
Orbital period1342.96 mins
Loading historical data...
2655 neighbors
Authenticating...
Loading maneuver chart data...
Loading historical data...
Loading historical data...
Loading historical data...
Loading historical data...
Loading historical data...
Loading historical data...
Loading historical data...

OPS 9328 (IDSCS 15) Visibility forecast

Observer location: undefined°, undefined

Span
Click to sort rows by Start time (UTC) header in descending order
Start Az.
Max El. time (UTC)
Max El. Az.
Max El.
End time (UTC)
End Az.
156 mins2024-12-21 12:49:51.729Z112.079° ESE2024-12-21 12:49:51.729Z112.079° ESE14.395°2024-12-21 15:25:51.729Z114.021° SE
|